sat.trackr.live / text

‹ back to catalog

HULIANWANG DIGUI-03

NORAD 62325 · 2024-240C

PAYLOAD ACTIVE UNKNOWN

§ Identity

Operator
Country
PRC
Launch date
2024-12-16
Launch site
WSC
Launch vehicle
Mass (kg)
RCS (m²)

External: N2YO · Heavens-Above · Gunter

§ Orbital elements

Epoch: 2026-05-25T04:12:08.164800Z

Period
108.73 min
Inclination
86.4983°
Eccentricity
0.0001479
Mean motion
13.24407590 rev/d
Perigee alt
1,166.8 km
Apogee alt
1,169.0 km
Semi-major
7,546.1 km
B*
-1.4826e-6
RAAN
350.9109°
Arg perigee
84.5632°
Mean anomaly
275.5671°
Rev number
6,959

§ Raw data

HULIANWANG DIGUI-031 62325U 24240C   26145.17509450  .00000014  00000+0 -14826-5 0  99902 62325  86.4983 350.9109 0001479  84.5632 275.5671 13.24407590 69591

JSON: /api/v1/satellites/62325 · /tle

For live sub-satellite position, see the globe view (requires WebGL).

§ Visibility from observer

Set your observer location to see the next 7 days of passes ≥ 10°. The values pass through the URL so the page stays shareable.

No JS? Fill the form by hand. The geolocation button needs JavaScript.